{"data":{"norad_id":38775,"intl_designator":"2012-050B","name":"BEIDOU-2 M6 (C14)","alt_names":[],"object_type":"PAYLOAD","status":"ACTIVE","operator":null,"country":"PRC","launch_date":"2012-09-18","launch_site_code":"XICLF","launch_vehicle":null,"mission":null,"orbit_class":"UNKNOWN","rcs_meters":10,"size_class":null,"mass_kg":null,"dimensions":null,"purposes":["nav"],"wikipedia_slug":null,"has_3d_model":false,"image_url":null,"decayed_at":null,"tle_current":{"epoch":"2026-05-24T04:54:38.333376Z","epoch_age_seconds":143891,"freshness":"FRESH","line1":"1 38775U 12050B   26144.20461034 -.00000067  00000+0  00000+0 0  9997","line2":"2 38775  56.5243  63.6871 0014179 353.4457   6.5303  1.86230909 92861","mean_motion":1.86230909,"eccentricity":0.0014179,"inclination_deg":56.5243,"raan_deg":63.6871,"arg_perigee_deg":353.4457,"mean_anomaly_deg":6.5303,"bstar":0,"rev_number":9286,"period_min":773.23362041905,"perigee_km":21488.492456962,"apogee_km":21567.628852271,"semimajor_km":27906.197654617,"source":"CELESTRAK","updated_at":"2026-05-25T13:38:24.212300Z"}}}